owner,sensor,date,latitude,longitude,vertical_datum,mass_concentration_of_oxygen_in_sea_water,qcFlag 
SCCF RECON,ioos:station:SCCF:56:1,2013-12-18T21:00:00Z,26.4645,-82.1044,1.45,8.97,1111122 
SCCF RECON,ioos:station:SCCF:56:1,2013-12-18T22:00:00Z,26.4645,-82.1044,1.4,8.41,1111122 
SCCF RECON,ioos:station:SCCF:56:1,2013-12-18T23:00:00Z,26.4645,-82.1044,1.38,8.66,1111122 
SCCF RECON,ioos:station:SCCF:56:1,2013-12-19T00:00:00Z,26.4645,-82.1044,1.4,8.44,1111122 
SCCF RECON,ioos:station:SCCF:56:1,2013-12-19T01:00:00Z,26.4645,-82.1044,1.438,8.19,1111122 
SCCF RECON,ioos:station:SCCF:56:1,2013-12-19T02:00:00Z,26.4645,-82.1044,1.48,7.96,1111122 
SCCF RECON,ioos:station:SCCF:56:1,2013-12-19T03:00:00Z,26.4645,-82.1044,1.572,7.35,1111122 
SCCF RECON,ioos:station:SCCF:56:1,2013-12-19T04:00:00Z,26.4645,-82.1044,1.669,7.26,1111122 
SCCF RECON,ioos:station:SCCF:56:1,2013-12-19T05:00:00Z,26.4645,-82.1044,1.73,7.23,1111122 
SCCF RECON,ioos:station:SCCF:56:1,2013-12-19T06:00:00Z,26.4645,-82.1044,1.76,7.19,1111122 
SCCF RECON,ioos:station:SCCF:56:1,2013-12-19T07:00:00Z,26.4645,-82.1044,1.73,6.98,1111122 
SCCF RECON,ioos:station:SCCF:56:1,2013-12-19T08:00:00Z,26.4645,-82.1044,1.64,6.7,1111122 
SCCF RECON,ioos:station:SCCF:56:1,2013-12-19T09:00:00Z,26.4645,-82.1044,1.512,6.46,1111122 
SCCF RECON,ioos:station:SCCF:56:1,2013-12-19T10:00:00Z,26.4645,-82.1044,1.39,6.22,1111122 
SCCF RECON,ioos:station:SCCF:56:1,2013-12-19T11:00:00Z,26.4645,-82.1044,1.28,5.88,1111122 
SCCF RECON,ioos:station:SCCF:56:1,2013-12-19T12:00:00Z,26.4645,-82.1044,1.17,5.62,1111122 
SCCF RECON,ioos:station:SCCF:56:1,2013-12-19T13:00:00Z,26.4645,-82.1044,1.079,5.32,1111122 
SCCF RECON,ioos:station:SCCF:56:1,2013-12-19T14:00:00Z,26.4645,-82.1044,1.031,5.31,1111122 
SCCF RECON,ioos:station:SCCF:56:1,2013-12-19T15:00:00Z,26.4645,-82.1044,1.125,5.85,1111122 
SCCF RECON,ioos:station:SCCF:56:1,2013-12-19T16:00:00Z,26.4645,-82.1044,1.295,8.19,1111122 
SCCF RECON,ioos:station:SCCF:56:1,2013-12-19T17:00:00Z,26.4645,-82.1044,1.43,9.87,1111122 
SCCF RECON,ioos:station:SCCF:56:1,2013-12-19T18:00:00Z,26.4645,-82.1044,1.523,8.58,1111122 
SCCF RECON,ioos:station:SCCF:56:1,2013-12-19T19:00:00Z,26.4645,-82.1044,1.608,8.61,1111122 
SCCF RECON,ioos:station:SCCF:56:1,2013-12-19T20:00:00Z,26.4645,-82.1044,1.66,8.57,1111122 
SCCF RECON,ioos:station:SCCF:56:1,2013-12-19T21:00:00Z,26.4645,-82.1044,1.65,8.73,1111122 
SCCF RECON,ioos:station:SCCF:56:1,2013-12-19T22:00:00Z,26.4645,-82.1044,1.583,9.06,1111122 
SCCF RECON,ioos:station:SCCF:56:1,2013-12-19T23:00:00Z,26.4645,-82.1044,1.52,8.46,1111122 
SCCF RECON,ioos:station:SCCF:56:1,2013-12-20T00:00:00Z,26.4645,-82.1044,1.5,8.29,1111122 
SCCF RECON,ioos:station:SCCF:56:1,2013-12-20T01:00:00Z,26.4645,-82.1044,1.49,8.11,1111122 
SCCF RECON,ioos:station:SCCF:56:1,2013-12-20T02:00:00Z,26.4645,-82.1044,1.51,8.2,1111122 
SCCF RECON,ioos:station:SCCF:56:1,2013-12-20T03:00:00Z,26.4645,-82.1044,1.58,7.57,1111122 
SCCF RECON,ioos:station:SCCF:56:1,2013-12-20T04:00:00Z,26.4645,-82.1044,1.67,7.29,1111122 
SCCF RECON,ioos:station:SCCF:56:1,2013-12-20T05:00:00Z,26.4645,-82.1044,1.746,7.12,1111122 
SCCF RECON,ioos:station:SCCF:56:1,2013-12-20T06:00:00Z,26.4645,-82.1044,1.77,7.16,1111122 
SCCF RECON,ioos:station:SCCF:56:1,2013-12-20T07:00:00Z,26.4645,-82.1044,1.72,6.98,1111122 
SCCF RECON,ioos:station:SCCF:56:1,2013-12-20T08:00:00Z,26.4645,-82.1044,1.64,6.72,1111122 
SCCF RECON,ioos:station:SCCF:56:1,2013-12-20T09:00:00Z,26.4645,-82.1044,1.55,6.56,1111122 
SCCF RECON,ioos:station:SCCF:56:1,2013-12-20T10:00:00Z,26.4645,-82.1044,1.43,6.3,1111122 
SCCF RECON,ioos:station:SCCF:56:1,2013-12-20T11:00:00Z,26.4645,-82.1044,1.311,5.88,1111122 
SCCF RECON,ioos:station:SCCF:56:1,2013-12-20T12:00:00Z,26.4645,-82.1044,1.206,5.55,1111122 
SCCF RECON,ioos:station:SCCF:56:1,2013-12-20T13:00:00Z,26.4645,-82.1044,1.106,5.18,1111122 
SCCF RECON,ioos:station:SCCF:56:1,2013-12-20T14:00:00Z,26.4645,-82.1044,1.02,4.9,1111122 
SCCF RECON,ioos:station:SCCF:56:1,2013-12-20T15:00:00Z,26.4645,-82.1044,1.021,5.0,1111122 
SCCF RECON,ioos:station:SCCF:56:1,2013-12-20T16:00:00Z,26.4645,-82.1044,1.17,7.15,1111122 
SCCF RECON,ioos:station:SCCF:56:1,2013-12-20T17:00:00Z,26.4645,-82.1044,1.33,9.95,1111122 
SCCF RECON,ioos:station:SCCF:56:1,2013-12-20T18:00:00Z,26.4645,-82.1044,1.45,8.7,1111122 
SCCF RECON,ioos:station:SCCF:56:1,2013-12-20T19:00:00Z,26.4645,-82.1044,1.542,8.78,1111122 
SCCF RECON,ioos:station:SCCF:56:1,2013-12-20T20:00:00Z,26.4645,-82.1044,1.62,8.65,1111122 
SCCF RECON,ioos:station:SCCF:56:1,2013-12-20T21:00:00Z,26.4645,-82.1044,1.67,8.62,1111122 
SCCF RECON,ioos:station:SCCF:56:1,2013-12-20T22:00:00Z,26.4645,-82.1044,1.68,8.5,1111122 
SCCF RECON,ioos:station:SCCF:56:1,2013-12-20T23:00:00Z,26.4645,-82.1044,1.65,8.6,1111122 
SCCF RECON,ioos:station:SCCF:56:1,2013-12-21T00:00:00Z,26.4645,-82.1044,1.61,8.17,1111122 
SCCF RECON,ioos:station:SCCF:56:1,2013-12-21T01:00:00Z,26.4645,-82.1044,1.58,7.63,1111122 
SCCF RECON,ioos:station:SCCF:56:1,2013-12-21T02:00:00Z,26.4645,-82.1044,1.61,7.46,1111122 
SCCF RECON,ioos:station:SCCF:56:1,2013-12-21T03:00:00Z,26.4645,-82.1044,1.69,7.16,1111122 
SCCF RECON,ioos:station:SCCF:56:1,2013-12-21T04:00:00Z,26.4645,-82.1044,1.778,7.04,1111122 
SCCF RECON,ioos:station:SCCF:56:1,2013-12-21T05:00:00Z,26.4645,-82.1044,1.86,6.98,1111122 
SCCF RECON,ioos:station:SCCF:56:1,2013-12-21T06:00:00Z,26.4645,-82.1044,1.9,7.01,1111122 
SCCF RECON,ioos:station:SCCF:56:1,2013-12-21T07:00:00Z,26.4645,-82.1044,1.91,7.16,1111122 
SCCF RECON,ioos:station:SCCF:56:1,2013-12-21T08:00:00Z,26.4645,-82.1044,1.878,6.97,1111122 
SCCF RECON,ioos:station:SCCF:56:1,2013-12-21T09:00:00Z,26.4645,-82.1044,1.81,6.57,1111122 
SCCF RECON,ioos:station:SCCF:56:1,2013-12-21T10:00:00Z,26.4645,-82.1044,1.699,6.11,1111122 
SCCF RECON,ioos:station:SCCF:56:1,2013-12-21T11:00:00Z,26.4645,-82.1044,1.57,6.02,1111122 
SCCF RECON,ioos:station:SCCF:56:1,2013-12-21T12:00:00Z,26.4645,-82.1044,1.444,5.53,1111122 
SCCF RECON,ioos:station:SCCF:56:1,2013-12-21T13:00:00Z,26.4645,-82.1044,1.329,5.3,1111122 
SCCF RECON,ioos:station:SCCF:56:1,2013-12-21T14:00:00Z,26.4645,-82.1044,1.22,5.09,1111122 
SCCF RECON,ioos:station:SCCF:56:1,2013-12-21T15:00:00Z,26.4645,-82.1044,1.16,5.08,1111122 
SCCF RECON,ioos:station:SCCF:56:1,2013-12-21T16:00:00Z,26.4645,-82.1044,1.21,5.41,1111122 
SCCF RECON,ioos:station:SCCF:56:1,2013-12-21T17:00:00Z,26.4645,-82.1044,1.36,8.52,1111122 
SCCF RECON,ioos:station:SCCF:56:1,2013-12-21T18:00:00Z,26.4645,-82.1044,1.49,9.02,1111122 
SCCF RECON,ioos:station:SCCF:56:1,2013-12-21T19:00:00Z,26.4645,-82.1044,1.569,8.41,1111122 
SCCF RECON,ioos:station:SCCF:56:1,2013-12-21T20:00:00Z,26.4645,-82.1044,1.624,8.52,1111122 
SCCF RECON,ioos:station:SCCF:56:1,2013-12-21T21:00:00Z,26.4645,-82.1044,1.66,8.49,1111122 
SCCF RECON,ioos:station:SCCF:56:1,2013-12-21T22:00:00Z,26.4645,-82.1044,1.64,8.14,1111122 
SCCF RECON,ioos:station:SCCF:56:1,2013-12-21T23:00:00Z,26.4645,-82.1044,1.59,8.03,1111122 
SCCF RECON,ioos:station:SCCF:56:1,2013-12-22T00:00:00Z,26.4645,-82.1044,1.53,7.59,1111122 
SCCF RECON,ioos:station:SCCF:56:1,2013-12-22T01:00:00Z,26.4645,-82.1044,1.5,7.27,1111122 
SCCF RECON,ioos:station:SCCF:56:1,2013-12-22T02:00:00Z,26.4645,-82.1044,1.49,7.32,1111122 
SCCF RECON,ioos:station:SCCF:56:1,2013-12-22T03:00:00Z,26.4645,-82.1044,1.5,7.3,1111122 
SCCF RECON,ioos:station:SCCF:56:1,2013-12-22T04:00:00Z,26.4645,-82.1044,1.56,6.44,1111122 
SCCF RECON,ioos:station:SCCF:56:1,2013-12-22T05:00:00Z,26.4645,-82.1044,1.667,6.43,1111122 
SCCF RECON,ioos:station:SCCF:56:1,2013-12-22T06:00:00Z,26.4645,-82.1044,1.75,6.91,1111122 
SCCF RECON,ioos:station:SCCF:56:1,2013-12-22T07:00:00Z,26.4645,-82.1044,1.79,6.69,1111122 
SCCF RECON,ioos:station:SCCF:56:1,2013-12-22T08:00:00Z,26.4645,-82.1044,1.82,6.67,1111122 
SCCF RECON,ioos:station:SCCF:56:1,2013-12-22T09:00:00Z,26.4645,-82.1044,1.82,6.55,1111122 
SCCF RECON,ioos:station:SCCF:56:1,2013-12-22T10:00:00Z,26.4645,-82.1044,1.75,6.51,1111122 
SCCF RECON,ioos:station:SCCF:56:1,2013-12-22T11:00:00Z,26.4645,-82.1044,1.65,6.12,1111122 
SCCF RECON,ioos:station:SCCF:56:1,2013-12-22T12:00:00Z,26.4645,-82.1044,1.54,5.62,1111122 
SCCF RECON,ioos:station:SCCF:56:1,2013-12-22T13:00:00Z,26.4645,-82.1044,1.44,4.9,1111122 
SCCF RECON,ioos:station:SCCF:56:1,2013-12-22T14:00:00Z,26.4645,-82.1044,1.34,4.67,1111122 
SCCF RECON,ioos:station:SCCF:56:1,2013-12-22T15:00:00Z,26.4645,-82.1044,1.28,4.62,1111122 
SCCF RECON,ioos:station:SCCF:56:1,2013-12-22T16:00:00Z,26.4645,-82.1044,1.28,4.88,1111122 
SCCF RECON,ioos:station:SCCF:56:1,2013-12-22T17:00:00Z,26.4645,-82.1044,1.4,7.01,1111122 
SCCF RECON,ioos:station:SCCF:56:1,2013-12-22T18:00:00Z,26.4645,-82.1044,1.53,8.31,1111122 
SCCF RECON,ioos:station:SCCF:56:1,2013-12-22T19:00:00Z,26.4645,-82.1044,1.629,8.63,1111122 
SCCF RECON,ioos:station:SCCF:56:1,2013-12-22T20:00:00Z,26.4645,-82.1044,1.71,8.62,1111122 
SCCF RECON,ioos:station:SCCF:56:1,2013-12-22T21:00:00Z,26.4645,-82.1044,1.74,8.25,1111122 
SCCF RECON,ioos:station:SCCF:56:1,2013-12-22T22:00:00Z,26.4645,-82.1044,1.72,8.01,1111122 
SCCF RECON,ioos:station:SCCF:56:1,2013-12-22T23:00:00Z,26.4645,-82.1044,1.68,7.65,1111122 
SCCF RECON,ioos:station:SCCF:56:1,2013-12-23T00:00:00Z,26.4645,-82.1044,1.64,7.58,1111122 
SCCF RECON,ioos:station:SCCF:56:1,2013-12-23T01:00:00Z,26.4645,-82.1044,1.605,7.29,1111122 
SCCF RECON,ioos:station:SCCF:56:1,2013-12-23T02:00:00Z,26.4645,-82.1044,1.54,7.23,1111122 
SCCF RECON,ioos:station:SCCF:56:1,2013-12-23T03:00:00Z,26.4645,-82.1044,1.48,6.54,1111122 
SCCF RECON,ioos:station:SCCF:56:1,2013-12-23T04:00:00Z,26.4645,-82.1044,1.47,6.25,1111122 
SCCF RECON,ioos:station:SCCF:56:1,2013-12-23T05:00:00Z,26.4645,-82.1044,1.53,6.18,1111122 
SCCF RECON,ioos:station:SCCF:56:1,2013-12-23T06:00:00Z,26.4645,-82.1044,1.62,6.43,1111122 
SCCF RECON,ioos:station:SCCF:56:1,2013-12-23T07:00:00Z,26.4645,-82.1044,1.67,6.45,1111122 
SCCF RECON,ioos:station:SCCF:56:1,2013-12-23T08:00:00Z,26.4645,-82.1044,1.68,6.03,1111122 
SCCF RECON,ioos:station:SCCF:56:1,2013-12-23T09:00:00Z,26.4645,-82.1044,1.69,5.83,1111122 
SCCF RECON,ioos:station:SCCF:56:1,2013-12-23T10:00:00Z,26.4645,-82.1044,1.67,6.28,1111122 
SCCF RECON,ioos:station:SCCF:56:1,2013-12-23T11:00:00Z,26.4645,-82.1044,1.63,6.02,1111122 
SCCF RECON,ioos:station:SCCF:56:1,2013-12-23T12:00:00Z,26.4645,-82.1044,1.558,5.45,1111122 
SCCF RECON,ioos:station:SCCF:56:1,2013-12-23T13:00:00Z,26.4645,-82.1044,1.453,4.76,1111122 
SCCF RECON,ioos:station:SCCF:56:1,2013-12-23T14:00:00Z,26.4645,-82.1044,1.36,4.32,1111122 
SCCF RECON,ioos:station:SCCF:56:1,2013-12-23T15:00:00Z,26.4645,-82.1044,1.288,4.16,1111122 
SCCF RECON,ioos:station:SCCF:56:1,2013-12-23T16:00:00Z,26.4645,-82.1044,1.24,4.24,1111122 
SCCF RECON,ioos:station:SCCF:56:1,2013-12-23T17:00:00Z,26.4645,-82.1044,1.29,4.55,1111122 
SCCF RECON,ioos:station:SCCF:56:1,2013-12-23T18:00:00Z,26.4645,-82.1044,1.411,7.92,1111122 
SCCF RECON,ioos:station:SCCF:56:1,2013-12-23T19:00:00Z,26.4645,-82.1044,1.519,8.72,1111122 
SCCF RECON,ioos:station:SCCF:56:1,2013-12-23T20:00:00Z,26.4645,-82.1044,1.607,8.93,1111122 
SCCF RECON,ioos:station:SCCF:56:1,2013-12-23T21:00:00Z,26.4645,-82.1044,1.68,8.66,1111122 
SCCF RECON,ioos:station:SCCF:56:1,2013-12-23T22:00:00Z,26.4645,-82.1044,1.73,8.17,1111122 
SCCF RECON,ioos:station:SCCF:56:1,2013-12-23T23:00:00Z,26.4645,-82.1044,1.74,7.81,1111122 
SCCF RECON,ioos:station:SCCF:56:1,2013-12-24T00:00:00Z,26.4645,-82.1044,1.7,7.43,1111122 
SCCF RECON,ioos:station:SCCF:56:1,2013-12-24T01:00:00Z,26.4645,-82.1044,1.63,7.28,1111122 
SCCF RECON,ioos:station:SCCF:56:1,2013-12-24T02:00:00Z,26.4645,-82.1044,1.557,7.24,1111122 
SCCF RECON,ioos:station:SCCF:56:1,2013-12-24T03:00:00Z,26.4645,-82.1044,1.49,6.7,1111122 
SCCF RECON,ioos:station:SCCF:56:1,2013-12-24T04:00:00Z,26.4645,-82.1044,1.45,6.31,1111122 
SCCF RECON,ioos:station:SCCF:56:1,2013-12-24T05:00:00Z,26.4645,-82.1044,1.46,6.12,1111122 
SCCF RECON,ioos:station:SCCF:56:1,2013-12-24T06:00:00Z,26.4645,-82.1044,1.51,6.12,1111122 
SCCF RECON,ioos:station:SCCF:56:1,2013-12-24T07:00:00Z,26.4645,-82.1044,1.59,5.4,1111122 
SCCF RECON,ioos:station:SCCF:56:1,2013-12-24T08:00:00Z,26.4645,-82.1044,1.64,6.28,1111122 
SCCF RECON,ioos:station:SCCF:56:1,2013-12-24T09:00:00Z,26.4645,-82.1044,1.65,6.36,1111122 
SCCF RECON,ioos:station:SCCF:56:1,2013-12-24T10:00:00Z,26.4645,-82.1044,1.65,5.81,1111122 
SCCF RECON,ioos:station:SCCF:56:1,2013-12-24T11:00:00Z,26.4645,-82.1044,1.71,5.91,1111122 
SCCF RECON,ioos:station:SCCF:56:1,2013-12-24T12:00:00Z,26.4645,-82.1044,1.639,5.81,1111122 
SCCF RECON,ioos:station:SCCF:56:1,2013-12-24T13:00:00Z,26.4645,-82.1044,1.53,5.09,1111122 
SCCF RECON,ioos:station:SCCF:56:1,2013-12-24T14:00:00Z,26.4645,-82.1044,1.421,4.39,1111122 
SCCF RECON,ioos:station:SCCF:56:1,2013-12-24T15:00:00Z,26.4645,-82.1044,1.31,4.24,1111122 
SCCF RECON,ioos:station:SCCF:56:1,2013-12-24T16:00:00Z,26.4645,-82.1044,1.213,4.44,1111122 
SCCF RECON,ioos:station:SCCF:56:1,2013-12-24T17:00:00Z,26.4645,-82.1044,1.142,4.77,1111122 
SCCF RECON,ioos:station:SCCF:56:1,2013-12-24T18:00:00Z,26.4645,-82.1044,1.16,5.06,1111122 
SCCF RECON,ioos:station:SCCF:56:1,2013-12-24T19:00:00Z,26.4645,-82.1044,1.25,8.38,1111122 
SCCF RECON,ioos:station:SCCF:56:1,2013-12-24T20:00:00Z,26.4645,-82.1044,1.36,9.18,1111122 
SCCF RECON,ioos:station:SCCF:56:1,2013-12-24T21:00:00Z,26.4645,-82.1044,1.45,9.47,1111122 
SCCF RECON,ioos:station:SCCF:56:1,2013-12-24T22:00:00Z,26.4645,-82.1044,1.49,8.56,1111122 
SCCF RECON,ioos:station:SCCF:56:1,2013-12-24T23:00:00Z,26.4645,-82.1044,1.483,7.26,1111122 
SCCF RECON,ioos:station:SCCF:56:1,2013-12-25T00:00:00Z,26.4645,-82.1044,1.432,7.28,1111122 
SCCF RECON,ioos:station:SCCF:56:1,2013-12-25T01:00:00Z,26.4645,-82.1044,1.38,7.02,1111122 
SCCF RECON,ioos:station:SCCF:56:1,2013-12-25T02:00:00Z,26.4645,-82.1044,1.334,6.48,1111122 
SCCF RECON,ioos:station:SCCF:56:1,2013-12-25T03:00:00Z,26.4645,-82.1044,1.296,6.0,1111122 
SCCF RECON,ioos:station:SCCF:56:1,2013-12-25T04:00:00Z,26.4645,-82.1044,1.218,5.58,1111122 
SCCF RECON,ioos:station:SCCF:56:1,2013-12-25T05:00:00Z,26.4645,-82.1044,1.15,5.35,1111122 
SCCF RECON,ioos:station:SCCF:56:1,2013-12-25T06:00:00Z,26.4645,-82.1044,1.113,5.31,1111122 
SCCF RECON,ioos:station:SCCF:56:1,2013-12-25T07:00:00Z,26.4645,-82.1044,1.11,5.17,1111122 
SCCF RECON,ioos:station:SCCF:56:1,2013-12-25T08:00:00Z,26.4645,-82.1044,1.118,5.25,1111122 
SCCF RECON,ioos:station:SCCF:56:1,2013-12-25T09:00:00Z,26.4645,-82.1044,1.23,6.21,1111122 
SCCF RECON,ioos:station:SCCF:56:1,2013-12-25T10:00:00Z,26.4645,-82.1044,1.33,6.47,1111122 
SCCF RECON,ioos:station:SCCF:56:1,2013-12-25T11:00:00Z,26.4645,-82.1044,1.4,6.27,1111122 
SCCF RECON,ioos:station:SCCF:56:1,2013-12-25T12:00:00Z,26.4645,-82.1044,1.442,6.18,1111122 
SCCF RECON,ioos:station:SCCF:56:1,2013-12-25T13:00:00Z,26.4645,-82.1044,1.438,6.32,1111122 
SCCF RECON,ioos:station:SCCF:56:1,2013-12-25T14:00:00Z,26.4645,-82.1044,1.41,6.38,1111122 
SCCF RECON,ioos:station:SCCF:56:1,2013-12-25T15:00:00Z,26.4645,-82.1044,1.369,6.03,1111122 
SCCF RECON,ioos:station:SCCF:56:1,2013-12-25T16:00:00Z,26.4645,-82.1044,1.32,5.94,1111122 
SCCF RECON,ioos:station:SCCF:56:1,2013-12-25T17:00:00Z,26.4645,-82.1044,1.3,6.12,1111122 
SCCF RECON,ioos:station:SCCF:56:1,2013-12-25T18:00:00Z,26.4645,-82.1044,1.33,6.97,1111122 
SCCF RECON,ioos:station:SCCF:56:1,2013-12-25T19:00:00Z,26.4645,-82.1044,1.38,8.76,1111122 
SCCF RECON,ioos:station:SCCF:56:1,2013-12-25T20:00:00Z,26.4645,-82.1044,1.48,9.93,1111122 
SCCF RECON,ioos:station:SCCF:56:1,2013-12-25T21:00:00Z,26.4645,-82.1044,1.576,9.4,1111122 
SCCF RECON,ioos:station:SCCF:56:1,2013-12-25T22:00:00Z,26.4645,-82.1044,1.65,8.53,1111122 
SCCF RECON,ioos:station:SCCF:56:1,2013-12-25T23:00:00Z,26.4645,-82.1044,1.709,7.42,1111122 
SCCF RECON,ioos:station:SCCF:56:1,2013-12-26T00:00:00Z,26.4645,-82.1044,1.731,7.24,1111122 
SCCF RECON,ioos:station:SCCF:56:1,2013-12-26T01:00:00Z,26.4645,-82.1044,1.714,7.15,1111122 
SCCF RECON,ioos:station:SCCF:56:1,2013-12-26T02:00:00Z,26.4645,-82.1044,1.64,6.99,1111122 
SCCF RECON,ioos:station:SCCF:56:1,2013-12-26T03:00:00Z,26.4645,-82.1044,1.56,6.93,1111122 
SCCF RECON,ioos:station:SCCF:56:1,2013-12-26T04:00:00Z,26.4645,-82.1044,1.475,6.59,1111122 
SCCF RECON,ioos:station:SCCF:56:1,2013-12-26T05:00:00Z,26.4645,-82.1044,1.38,6.32,1111122 
SCCF RECON,ioos:station:SCCF:56:1,2013-12-26T06:00:00Z,26.4645,-82.1044,1.309,6.04,1111122 
SCCF RECON,ioos:station:SCCF:56:1,2013-12-26T07:00:00Z,26.4645,-82.1044,1.25,5.87,1111122 
SCCF RECON,ioos:station:SCCF:56:1,2013-12-26T08:00:00Z,26.4645,-82.1044,1.26,5.85,1111122 
SCCF RECON,ioos:station:SCCF:56:1,2013-12-26T09:00:00Z,26.4645,-82.1044,1.33,6.42,1111122 
SCCF RECON,ioos:station:SCCF:56:1,2013-12-26T10:00:00Z,26.4645,-82.1044,1.43,6.63,1111122 
SCCF RECON,ioos:station:SCCF:56:1,2013-12-26T11:00:00Z,26.4645,-82.1044,1.51,6.74,1111122 
SCCF RECON,ioos:station:SCCF:56:1,2013-12-26T12:00:00Z,26.4645,-82.1044,1.56,6.7,1111122 
SCCF RECON,ioos:station:SCCF:56:1,2013-12-26T13:00:00Z,26.4645,-82.1044,1.557,6.29,1111122 
SCCF RECON,ioos:station:SCCF:56:1,2013-12-26T14:00:00Z,26.4645,-82.1044,1.53,6.34,1111122 
SCCF RECON,ioos:station:SCCF:56:1,2013-12-26T15:00:00Z,26.4645,-82.1044,1.49,6.12,1111122 
SCCF RECON,ioos:station:SCCF:56:1,2013-12-26T16:00:00Z,26.4645,-82.1044,1.43,6.21,1111122 
SCCF RECON,ioos:station:SCCF:56:1,2013-12-26T17:00:00Z,26.4645,-82.1044,1.39,6.23,1111122 
SCCF RECON,ioos:station:SCCF:56:1,2013-12-26T18:00:00Z,26.4645,-82.1044,1.4,7.04,1111122 
SCCF RECON,ioos:station:SCCF:56:1,2013-12-26T19:00:00Z,26.4645,-82.1044,1.42,7.85,1111122 
SCCF RECON,ioos:station:SCCF:56:1,2013-12-26T20:00:00Z,26.4645,-82.1044,1.48,9.83,1111122 
SCCF RECON,ioos:station:SCCF:56:1,2013-12-26T21:00:00Z,26.4645,-82.1044,1.58,9.39,1111122 
SCCF RECON,ioos:station:SCCF:56:1,2013-12-26T22:00:00Z,26.4645,-82.1044,1.68,9.55,1111122 
SCCF RECON,ioos:station:SCCF:56:1,2013-12-26T23:00:00Z,26.4645,-82.1044,1.75,8.13,1111122 
SCCF RECON,ioos:station:SCCF:56:1,2013-12-27T00:00:00Z,26.4645,-82.1044,1.792,7.86,1111122 
SCCF RECON,ioos:station:SCCF:56:1,2013-12-27T01:00:00Z,26.4645,-82.1044,1.82,7.38,1111122 
SCCF RECON,ioos:station:SCCF:56:1,2013-12-27T02:00:00Z,26.4645,-82.1044,1.79,7.44,1111122 
SCCF RECON,ioos:station:SCCF:56:1,2013-12-27T03:00:00Z,26.4645,-82.1044,1.685,7.24,1111122 
SCCF RECON,ioos:station:SCCF:56:1,2013-12-27T04:00:00Z,26.4645,-82.1044,1.6,7.08,1111122 
SCCF RECON,ioos:station:SCCF:56:1,2013-12-27T05:00:00Z,26.4645,-82.1044,1.5,6.67,1111122 
SCCF RECON,ioos:station:SCCF:56:1,2013-12-27T06:00:00Z,26.4645,-82.1044,1.4,6.26,1111122 
SCCF RECON,ioos:station:SCCF:56:1,2013-12-27T07:00:00Z,26.4645,-82.1044,1.291,5.69,1111122 
SCCF RECON,ioos:station:SCCF:56:1,2013-12-27T08:00:00Z,26.4645,-82.1044,1.227,5.5,1111122 
SCCF RECON,ioos:station:SCCF:56:1,2013-12-27T09:00:00Z,26.4645,-82.1044,1.222,5.75,1111122 
SCCF RECON,ioos:station:SCCF:56:1,2013-12-27T10:00:00Z,26.4645,-82.1044,1.31,6.04,1111122 
SCCF RECON,ioos:station:SCCF:56:1,2013-12-27T11:00:00Z,26.4645,-82.1044,1.4,6.63,1111122 
SCCF RECON,ioos:station:SCCF:56:1,2013-12-27T12:00:00Z,26.4645,-82.1044,1.47,6.76,1111122 
SCCF RECON,ioos:station:SCCF:56:1,2013-12-27T13:00:00Z,26.4645,-82.1044,1.54,6.82,1111122 
SCCF RECON,ioos:station:SCCF:56:1,2013-12-27T14:00:00Z,26.4645,-82.1044,1.58,7.03,1111122 
SCCF RECON,ioos:station:SCCF:56:1,2013-12-27T15:00:00Z,26.4645,-82.1044,1.54,6.61,1111122 
SCCF RECON,ioos:station:SCCF:56:1,2013-12-27T16:00:00Z,26.4645,-82.1044,1.52,6.64,1111122 
SCCF RECON,ioos:station:SCCF:56:1,2013-12-27T17:00:00Z,26.4645,-82.1044,1.48,6.62,1111122 
SCCF RECON,ioos:station:SCCF:56:1,2013-12-27T18:00:00Z,26.4645,-82.1044,1.439,6.84,1111122 
SCCF RECON,ioos:station:SCCF:56:1,2013-12-27T19:00:00Z,26.4645,-82.1044,1.41,6.93,1111122 
SCCF RECON,ioos:station:SCCF:56:1,2013-12-27T20:00:00Z,26.4645,-82.1044,1.432,9.65,1111122 
SCCF RECON,ioos:station:SCCF:56:1,2013-12-27T21:00:00Z,26.4645,-82.1044,1.54,9.46,1111122 
SCCF RECON,ioos:station:SCCF:56:1,2013-12-27T22:00:00Z,26.4645,-82.1044,1.641,8.8,1111122 
SCCF RECON,ioos:station:SCCF:56:1,2013-12-27T23:00:00Z,26.4645,-82.1044,1.73,7.88,1111122 
SCCF RECON,ioos:station:SCCF:56:1,2013-12-28T00:00:00Z,26.4645,-82.1044,1.79,7.59,1111122 
SCCF RECON,ioos:station:SCCF:56:1,2013-12-28T01:00:00Z,26.4645,-82.1044,1.84,7.29,1111122 
SCCF RECON,ioos:station:SCCF:56:1,2013-12-28T02:00:00Z,26.4645,-82.1044,1.852,7.2,1111122 
SCCF RECON,ioos:station:SCCF:56:1,2013-12-28T03:00:00Z,26.4645,-82.1044,1.77,6.89,1111122 
SCCF RECON,ioos:station:SCCF:56:1,2013-12-28T04:00:00Z,26.4645,-82.1044,1.67,6.81,1111122 
SCCF RECON,ioos:station:SCCF:56:1,2013-12-28T05:00:00Z,26.4645,-82.1044,1.546,6.6,1111122 
SCCF RECON,ioos:station:SCCF:56:1,2013-12-28T06:00:00Z,26.4645,-82.1044,1.419,6.1,1111122 
SCCF RECON,ioos:station:SCCF:56:1,2013-12-28T07:00:00Z,26.4645,-82.1044,1.294,5.53,1111122 
SCCF RECON,ioos:station:SCCF:56:1,2013-12-28T08:00:00Z,26.4645,-82.1044,1.19,5.06,1111122 
SCCF RECON,ioos:station:SCCF:56:1,2013-12-28T09:00:00Z,26.4645,-82.1044,1.109,4.91,1111122 
SCCF RECON,ioos:station:SCCF:56:1,2013-12-28T10:00:00Z,26.4645,-82.1044,1.14,5.14,1111122 
SCCF RECON,ioos:station:SCCF:56:1,2013-12-28T11:00:00Z,26.4645,-82.1044,1.25,6.02,1111122 
SCCF RECON,ioos:station:SCCF:56:1,2013-12-28T12:00:00Z,26.4645,-82.1044,1.38,6.2,1111122 
SCCF RECON,ioos:station:SCCF:56:1,2013-12-28T13:00:00Z,26.4645,-82.1044,1.47,6.7,1111122 
SCCF RECON,ioos:station:SCCF:56:1,2013-12-28T14:00:00Z,26.4645,-82.1044,1.568,6.92,1111122 
SCCF RECON,ioos:station:SCCF:56:1,2013-12-28T15:00:00Z,26.4645,-82.1044,1.637,7.26,1111122 
SCCF RECON,ioos:station:SCCF:56:1,2013-12-28T16:00:00Z,26.4645,-82.1044,1.66,7.79,1111122 
SCCF RECON,ioos:station:SCCF:56:1,2013-12-28T17:00:00Z,26.4645,-82.1044,1.63,7.55,1111122 
SCCF RECON,ioos:station:SCCF:56:1,2013-12-28T18:00:00Z,26.4645,-82.1044,1.584,7.34,1111122 
SCCF RECON,ioos:station:SCCF:56:1,2013-12-28T19:00:00Z,26.4645,-82.1044,1.49,7.42,1111122 
SCCF RECON,ioos:station:SCCF:56:1,2013-12-28T20:00:00Z,26.4645,-82.1044,1.48,7.07,1111122 
SCCF RECON,ioos:station:SCCF:56:1,2013-12-28T21:00:00Z,26.4645,-82.1044,1.55,9.25,1111122 
SCCF RECON,ioos:station:SCCF:56:1,2013-12-28T22:00:00Z,26.4645,-82.1044,1.63,8.26,1111122 
SCCF RECON,ioos:station:SCCF:56:1,2013-12-28T23:00:00Z,26.4645,-82.1044,1.72,8.19,1111122 
SCCF RECON,ioos:station:SCCF:56:1,2013-12-29T00:00:00Z,26.4645,-82.1044,1.79,7.64,1111122 
SCCF RECON,ioos:station:SCCF:56:1,2013-12-29T01:00:00Z,26.4645,-82.1044,1.824,7.18,1111122 
SCCF RECON,ioos:station:SCCF:56:1,2013-12-29T02:00:00Z,26.4645,-82.1044,1.84,7.03,1111122 
SCCF RECON,ioos:station:SCCF:56:1,2013-12-29T03:00:00Z,26.4645,-82.1044,1.82,7.13,1111122 
SCCF RECON,ioos:station:SCCF:56:1,2013-12-29T04:00:00Z,26.4645,-82.1044,1.78,6.82,1111122 
SCCF RECON,ioos:station:SCCF:56:1,2013-12-29T05:00:00Z,26.4645,-82.1044,1.7,6.35,1111122 
SCCF RECON,ioos:station:SCCF:56:1,2013-12-29T06:00:00Z,26.4645,-82.1044,1.572,6.19,1111122 
SCCF RECON,ioos:station:SCCF:56:1,2013-12-29T07:00:00Z,26.4645,-82.1044,1.42,5.7,1111122 
SCCF RECON,ioos:station:SCCF:56:1,2013-12-29T08:00:00Z,26.4645,-82.1044,1.27,5.18,1111122 
SCCF RECON,ioos:station:SCCF:56:1,2013-12-29T09:00:00Z,26.4645,-82.1044,1.18,4.69,1111122 
SCCF RECON,ioos:station:SCCF:56:1,2013-12-29T10:00:00Z,26.4645,-82.1044,1.12,4.61,1111122 
SCCF RECON,ioos:station:SCCF:56:1,2013-12-29T11:00:00Z,26.4645,-82.1044,1.19,4.68,1111122 
SCCF RECON,ioos:station:SCCF:56:1,2013-12-29T12:00:00Z,26.4645,-82.1044,1.353,4.8,1111122 
SCCF RECON,ioos:station:SCCF:56:1,2013-12-29T13:00:00Z,26.4645,-82.1044,1.506,5.36,1111122 
SCCF RECON,ioos:station:SCCF:56:1,2013-12-29T14:00:00Z,26.4645,-82.1044,1.583,6.23,1111122 
SCCF RECON,ioos:station:SCCF:56:1,2013-12-29T15:00:00Z,26.4645,-82.1044,1.66,6.73,1111122 
SCCF RECON,ioos:station:SCCF:56:1,2013-12-29T16:00:00Z,26.4645,-82.1044,1.74,7.37,1111122 
SCCF RECON,ioos:station:SCCF:56:1,2013-12-29T17:00:00Z,26.4645,-82.1044,1.77,7.43,1111122 
SCCF RECON,ioos:station:SCCF:56:1,2013-12-29T18:00:00Z,26.4645,-82.1044,1.71,7.21,1111122 